sat.trackr.live / text

‹ back to catalog

STARLINK-31621

NORAD 59465 · 2024-068L

PAYLOAD ACTIVE UNKNOWN

§ Identity

Operator
Country
US
Launch date
2024-04-10
Launch site
AFETR
Launch vehicle
Mass (kg)
RCS (m²)

Purposes: comms

External: N2YO · Heavens-Above · Gunter

§ Orbital elements

Epoch: 2026-05-24T21:06:09.074880Z

Period
94.26 min
Inclination
43.0027°
Eccentricity
0.0000893
Mean motion
15.27612295 rev/d
Perigee alt
482.3 km
Apogee alt
483.6 km
Semi-major
6,861.1 km
B*
-2.7635e-4
RAAN
324.3637°
Arg perigee
277.6897°
Mean anomaly
82.3853°
Rev number
12,017

§ Raw data

STARLINK-316211 59465U 24068L   26144.87927170 -.00007866  00000+0 -27635-3 0  99912 59465  43.0027 324.3637 0000893 277.6897  82.3853 15.27612295120171

JSON: /api/v1/satellites/59465 · /tle

For live sub-satellite position, see the globe view (requires WebGL).

§ Visibility from observer

Set your observer location to see the next 7 days of passes ≥ 10°. The values pass through the URL so the page stays shareable.

No JS? Fill the form by hand. The geolocation button needs JavaScript.